W9KOZ-7 Weather Reports


Display with metric or nautical units.
time (UTC)temp
F
wind
direction
speed
MPH
gust
MPH
rain 1hr
in
rain 24hr
in
rain mn
in
humidity
%
barometer
mb
20260507221626 49 218 0.0 0.0 0.00 0.00 0.00 62 1019.7
20260507220140 50 218 0.0 0.0 0.00 0.00 0.00 58 1019.7
20260507215611 52 218 1.0 2.0 0.00 0.00 0.00 51 1019.8
20260507214139 53 224 1.0 3.0 0.00 0.00 0.00 41 1019.9
20260507213138 52 162 1.0 6.0 0.00 0.00 0.00 44 1020.1
20260507212139 52 152 3.0 9.0 0.00 0.00 0.00 41 1020.1
20260507211138 52 160 2.0 7.0 0.00 0.00 0.00 46 1020.1
20260507210136 53 140 3.0 8.0 0.00 0.00 0.00 40 1020.1
20260507205136 54 141 3.0 8.0 0.00 0.00 0.00 41 1019.9
20260507204136 55 122 2.0 10.0 0.00 0.00 0.00 40 1020.2
20260507203136 56 249 2.0 6.0 0.00 0.01 0.00 38 1020.2
20260507202134 55 318 2.0 7.0 0.00 0.01 0.00 44 1020.4
20260507201133 54 193 2.0 8.0 0.00 0.01 0.00 41 1020.7
20260507200133 53 256 3.0 7.0 0.00 0.01 0.00 44 1020.8
20260507195131 52 147 3.0 10.0 0.00 0.01 0.00 40 1020.8
20260507194132 52 32 4.0 10.0 0.00 0.01 0.00 40 1020.8
20260507193132 51 151 0.0 7.0 0.00 0.01 0.00 47 1021.0
20260507192131 50 326 2.0 5.0 0.00 0.01 0.00 52 1021.0
20260507191132 51 201 2.0 6.0 0.00 0.01 0.00 50 1020.7
20260507190134 51 359 2.0 8.0 0.00 0.01 0.00 46 1021.0
20260507185132 50 139 4.0 8.0 0.00 0.01 0.00 47 1021.1
20260507184132 51 148 4.0 15.0 0.00 0.01 0.00 43 1021.2
20260507183131 52 169 2.0 6.0 0.00 0.01 0.00 45 1021.3
20260507182619 51 152 3.0 6.0 0.00 0.01 0.00 44 1021.2
20260507181132 51 178 2.0 7.0 0.00 0.01 0.00 47 1021.3
20260507180610 50 122 3.0 8.0 0.00 0.02 0.00 48 1021.6
20260507175131 50 220 3.0 6.0 0.00 0.02 0.00 47 1021.5
20260507174132 50 163 2.0 5.0 0.00 0.03 0.00 54 1021.9
20260507173133 50 159 0.0 3.0 0.00 0.04 0.00 67 1021.7
20260507172132 50 201 1.0 4.0 0.00 0.05 0.00 67 1022.0
20260507171133 49 183 1.0 6.0 0.00 0.06 0.00 66 1022.1
20260507170133 48 127 1.0 4.0 0.00 0.07 0.00 75 1022.1
20260507165132 46 35 1.0 2.0 0.00 0.08 0.00 82 1022.2
20260507164614 44 349 0.0 0.0 0.00 0.09 0.00 85 1022.1
20260507163131 43 349 0.0 0.0 0.00 0.10 0.00 87 1022.1
20260507162132 42 348 0.0 0.0 0.00 0.10 0.00 88 1022.0
20260507161131 41 348 0.0 0.0 0.00 0.10 0.00 88 1022.0
20260507160131 39 349 0.0 0.0 0.00 0.10 0.00 88 1022.1
20260507155131 38 349 0.0 2.0 0.00 0.11 0.00 87 1022.1
20260507154131 38 359 1.0 2.0 0.00 0.11 0.00 87 1022.2
20260507153132 37 4 1.0 2.0 0.00 0.11 0.00 88 1022.4
20260507152132 36 4 1.0 3.0 0.00 0.11 0.00 87 1022.4
20260507151133 36 4 1.0 3.0 0.00 0.12 0.00 88 1022.4
20260507150132 35 4 1.0 2.0 0.00 0.12 0.00 88 1022.4
20260507145133 34 4 1.0 3.0 0.00 0.12 0.00 89 1022.2
20260507144132 33 4 1.0 3.0 0.00 0.13 0.00 89 1022.1
20260507143131 32 4 0.0 0.0 0.00 0.13 0.00 89 1022.2
20260507142132 31 9 0.0 0.0 0.00 0.14 0.00 90 1022.1
20260507141131 29 8 0.0 0.0 0.00 0.14 0.00 91 1022.2
20260507141047 27 8 0.0 0.0 0.00 0.15 0.00 91 1022.4
20260507135137 26 4 0.0 0.0 0.00 0.15 0.00 91 1022.5
20260507135055 25 4 0.0 0.0 0.00 0.16 0.00 90 1022.5
20260507133136 24 4 0.0 0.0 0.00 0.17 0.00 91 1022.4
20260507132137 23 4 0.0 0.0 0.00 0.18 0.00 91 1022.5
20260507131135 23 4 0.0 0.0 0.00 0.18 0.00 90 1022.4
20260507130544 23 4 0.0 0.0 0.00 0.19 0.00 90 1022.2
20260507130316 23 4 0.0 0.0 0.00 0.19 0.00 89 1022.2
20260507124135 23 4 0.0 0.0 0.00 0.20 0.00 91 1022.2
20260507123136 22 347 0.0 0.0 0.00 0.20 0.00 90 1022.0
20260507122133 21 359 0.0 0.0 0.00 0.21 0.00 90 1021.9
20260507121131 21 359 0.0 0.0 0.00 0.21 0.00 89 1021.9
20260507120132 22 359 0.0 0.0 0.00 0.21 0.00 90 1021.9
20260507115130 22 341 0.0 0.0 0.00 0.22 0.00 90 1021.9
20260507114131 22 341 0.0 0.0 0.00 0.23 0.00 90 1021.9
20260507113129 22 359 0.0 0.0 0.00 0.24 0.00 90 1021.7
20260507112129 22 341 0.0 0.0 0.00 0.26 0.00 90 1021.9
20260507111128 22 341 0.0 0.0 0.00 0.26 0.00 91 1021.9
20260507110128 22 341 0.0 0.0 0.00 0.26 0.00 90 1021.7
20260507105128 22 4 0.0 0.0 0.00 0.26 0.00 90 1021.6
20260507105037 22 4 0.0 0.0 0.00 0.26 0.00 90 1021.6
20260507103124 22 4 0.0 0.0 0.00 0.26 0.00 90 1021.7
20260507102122 22 359 0.0 0.0 0.00 0.28 0.00 90 1021.7
20260507101122 22 4 0.0 0.0 0.00 0.28 0.00 90 1021.6
20260507100122 22 4 0.0 0.0 0.00 0.29 0.00 91 1021.6
20260507095122 22 4 0.0 0.0 0.00 0.29 0.00 91 1021.7
20260507094122 22 4 0.0 0.0 0.00 0.29 0.00 90 1021.6
20260507093608 21 4 0.0 0.0 0.00 0.29 0.00 90 1021.5
20260507092122 21 350 0.0 0.0 0.00 0.29 0.00 90 1021.6
20260507091122 20 354 0.0 0.0 0.00 0.30 0.00 90 1021.7
20260507090116 20 354 0.0 0.0 0.00 0.30 0.00 91 1022.0
20260507085114 19 344 0.0 0.0 0.00 0.30 0.00 91 1021.7
20260507084113 19 324 0.0 0.0 0.00 0.30 0.00 90 1021.7
20260507083114 19 308 0.0 0.0 0.00 0.30 0.00 90 1021.9
20260507082112 18 9 0.0 0.0 0.00 0.30 0.00 90 1021.9
20260507081110 18 318 0.0 0.0 0.00 0.30 0.00 90 1022.0
20260507080110 19 359 0.0 0.0 0.00 0.30 0.00 90 1022.1
20260507075107 19 339 0.0 0.0 0.00 0.30 0.00 91 1021.9
20260507074106 18 335 0.0 0.0 0.00 0.30 0.00 90 1022.1
20260507073108 18 334 0.0 0.0 0.00 0.30 0.00 90 1022.2
20260507072107 18 359 0.0 0.0 0.00 0.31 0.00 89 1022.1
20260507071107 18 333 0.0 0.0 0.00 0.31 0.00 89 1022.0
20260507070548 19 334 0.0 0.0 0.00 0.31 0.00 89 1022.0
20260507065056 19 330 0.0 0.0 0.00 0.31 0.00 90 1022.1
20260507064101 19 332 0.0 0.0 0.00 0.31 0.00 88 1022.0
20260507063538 19 339 0.0 0.0 0.00 0.32 0.00 88 1022.0
20260507062538 19 359 0.0 0.0 0.00 0.32 0.00 89 1021.7
20260507061059 19 359 0.0 0.0 0.00 0.32 0.00 89 1021.7
20260507060050 19 342 0.0 0.0 0.00 0.32 0.00 89 1021.6
20260507055049 19 341 0.0 0.0 0.00 0.32 0.32 89 1021.5
20260507054049 20 359 0.0 0.0 0.00 0.32 0.32 89 1021.3
20260507053052 20 342 0.0 0.0 0.00 0.33 0.32 90 1021.3
20260507052047 20 359 0.0 0.0 0.00 0.33 0.32 90 1021.2
20260507051047 20 342 0.0 0.0 0.00 0.33 0.32 90 1021.3
20260507050045 20 343 0.0 0.0 0.00 0.33 0.32 91 1021.3
20260507045532 20 359 0.0 0.0 0.00 0.33 0.32 90 1021.5
20260507044042 20 349 0.0 0.0 0.00 0.33 0.32 90 1021.5
20260507043043 20 354 0.0 0.0 0.00 0.33 0.32 90 1021.2
20260507032731 20 120 0.0 0.0 0.00 0.33 0.32 90 1020.7
20260507031731 21 126 0.0 0.0 0.00 0.33 0.32 89 1020.6
20260507030730 21 127 0.0 0.0 0.00 0.33 0.32 89 1020.3
20260507025732 22 127 0.0 0.0 0.00 0.33 0.32 88 1020.4
20260507024733 22 127 0.0 0.0 0.00 0.33 0.32 88 1020.3
20260507023732 23 127 0.0 0.0 0.00 0.33 0.32 88 1020.2
20260507022732 24 127 0.0 0.0 0.00 0.33 0.32 88 1020.1
20260507021731 24 127 0.0 0.0 0.00 0.33 0.32 89 1020.1
20260507021215 25 127 0.0 0.0 0.00 0.33 0.32 88 1019.9
20260507020209 25 126 0.0 0.0 0.00 0.33 0.32 89 1020.1
20260507014731 26 127 0.0 0.0 0.00 0.33 0.32 89 1020.1
20260507014210 26 127 0.0 0.0 0.00 0.33 0.32 89 1020.1
20260507012731 27 127 0.0 0.0 0.00 0.34 0.32 89 1019.9
20260507011731 27 127 0.0 0.0 0.00 0.34 0.32 90 1019.8
20260507010731 27 127 0.0 0.0 0.00 0.34 0.32 90 1019.9
20260507005731 27 141 0.0 0.0 0.00 0.34 0.32 91 1019.7
20260507005208 27 133 0.0 0.0 0.00 0.34 0.32 90 1019.7
20260507003731 28 145 0.0 0.0 0.00 0.34 0.32 90 1019.5
20260507002730 28 163 0.0 0.0 0.00 0.34 0.32 90 1019.7
20260507001731 28 134 0.0 0.0 0.00 0.34 0.32 90 1019.5
20260507000736 27 185 0.0 0.0 0.00 0.34 0.32 91 1019.7
20260506235731 27 154 0.0 0.0 0.00 0.34 0.32 91 1019.5
20260506234733 27 148 0.0 0.0 0.00 0.35 0.32 91 1019.8
20260506234222 27 181 0.0 0.0 0.00 0.35 0.32 90 1019.7
20260506232733 28 150 0.0 0.0 0.00 0.35 0.32 90 1019.7
20260506231732 28 121 0.0 0.0 0.00 0.35 0.32 89 1019.5
20260506231217 28 122 0.0 0.0 0.00 0.35 0.32 87 1019.7
20260506230211 28 13 0.0 0.0 0.00 0.35 0.32 87 1019.7
20260506224732 28 124 0.0 0.0 0.00 0.35 0.32 88 1019.5
20260506223731 29 147 0.0 0.0 0.00 0.35 0.32 84 1019.4
20260506222731 28 233 0.0 0.0 0.00 0.35 0.32 87 1019.5